Fort Benning, AL

3:54 AM CDT on June 29, 2017 (GMT -0500)
Lawson Army Air Field

Weather History for KLSF - March, 2014

Change the Weather History Date:

Saturday, March 15, 2014

  Actual Average Record
Temperature  
Mean Temperature 58 °F -  
Max Temperature 70 °F 67 °F 88 °F (2016)
Min Temperature 45 °F 42 °F 26 °F (2017)
Degree Days  
Heating Degree Days 8    
Growing Degree Days 8 (Base 50)    
Moisture  
Dew Point 47 °F    
Average Humidity 68    
Maximum Humidity 90    
Minimum Humidity 42    
Precipitation  
Precipitation 0.00 in - - ()
Sea Level Pressure  
Sea Level Pressure 30.09 in    
Wind  
Wind Speed 3 mph (SSE)    
Max Wind Speed 6 mph    
Max Gust Speed -    
Visibility 10 miles    
Events      
Averages and records for this station are not official NWS values.
T = Trace of Precipitation, MM = Missing Value Source: NWS Daily Summary

Daily Weather History Graph

Daily Weather History Graph

Search for Another Location

Airport or City:

Trip Planner

Search our weather history database for the weather conditions in past years. The results will help you decide how hot, cold, wet, or windy it might be!

Date:

Astronomy

Mar. 15, 2014 Rise Set
Actual Time 7:50 AM EDT 7:47 PM EDT
Civil Twilight 7:25 AM EDT 8:12 PM EDT
Nautical Twilight 6:57 AM EDT 8:40 PM EDT
Astronomical Twilight 6:28 AM EDT 9:09 PM EDT
Moon 7:07 PM EDT (3/15) 6:59 AM EDT (3/15)
Length of Visible Light 12h 46m
Length of Day
11h 57m
Waxing Gibbous, 99% of the Moon is Illuminated
Mar 15
Waxing Gibbous
Mar 16
Full
Mar 23
Last Quarter
Mar 30
New
Apr 7
First Quarter

Hourly Weather History & Observations

Time (EDT) Temp. Windchill Dew Point Humidity Pressure Visibility Wind Dir Wind Speed Gust Speed Precip Events Conditions
12:58 AM 50.2 °F - 41.2 °F 71% 30.16 in 10.0 mi SE 5.8 mph - N/A   Overcast
1:58 AM 47.1 °F - 38.7 °F 72% 30.15 in 10.0 mi SSE 3.5 mph - N/A   Scattered Clouds
2:58 AM 46.0 °F 43.9 °F 39.7 °F 79% 30.14 in 10.0 mi SE 4.6 mph - N/A   Clear
3:58 AM 47.8 °F - 41.9 °F 80% 30.13 in 10.0 mi SE 4.6 mph - N/A   Overcast
4:58 AM 48.7 °F - 44.1 °F 84% 30.13 in 10.0 mi SE 3.5 mph - N/A   Overcast
5:58 AM 48.7 °F - 45.3 °F 88% 30.13 in 10.0 mi Calm Calm - N/A   Overcast
6:58 AM 47.7 °F - 44.1 °F 87% 30.14 in 10.0 mi Calm Calm - N/A   Mostly Cloudy
7:58 AM 45.7 °F - 43.0 °F 90% 30.15 in 10.0 mi SSE 1.2 mph - N/A   Scattered Clouds
8:58 AM 48.7 °F - 45.3 °F 88% 30.16 in 10.0 mi Calm Calm - N/A   Mostly Cloudy
9:58 AM 53.8 °F - 46.6 °F 77% 30.17 in 10.0 mi East 1.2 mph - N/A   Clear
10:58 AM 58.5 °F - 48.2 °F 69% 30.16 in 10.0 mi Variable 4.6 mph - N/A   Partly Cloudy
11:58 AM 62.8 °F - 50.4 °F 64% 30.16 in 10.0 mi SW 4.6 mph - N/A   Partly Cloudy
12:58 PM 64.9 °F - 49.6 °F 58% 30.12 in 10.0 mi Variable 3.5 mph - N/A   Mostly Cloudy
1:58 PM 68.2 °F - 46.6 °F 46% 30.10 in 10.0 mi East 5.8 mph - N/A   Partly Cloudy
2:58 PM 69.8 °F - 47.5 °F 45% 30.07 in 10.0 mi Calm Calm - N/A   Clear
3:58 PM 70.7 °F - 46.8 °F 42% 30.05 in 10.0 mi Variable 3.5 mph - N/A   Overcast
4:58 PM 69.6 °F - 47.8 °F 46% 30.04 in 10.0 mi SSW 4.6 mph - N/A   Overcast
5:58 PM 69.1 °F - 48.0 °F 47% 30.03 in 10.0 mi SSW 5.8 mph - N/A   Overcast
6:58 PM 67.1 °F - 49.5 °F 53% 30.03 in 10.0 mi SSW 5.8 mph - N/A   Overcast
7:58 PM 64.9 °F - 50.9 °F 60% 30.03 in 10.0 mi South 5.8 mph - N/A   Overcast
8:58 PM 64.0 °F - 51.4 °F 64% 30.02 in 10.0 mi South 4.6 mph - N/A   Overcast
9:53 PM 62.6 °F - 51.8 °F 68% 30.02 in 10.0 mi Calm Calm - N/A   Overcast
9:58 PM 61.7 °F - 52.7 °F 72% 30.03 in 10.0 mi Calm Calm - N/A   Overcast
10:58 PM 59.9 °F - 53.2 °F 79% 30.02 in 10.0 mi Calm Calm - N/A   Overcast
11:58 PM 59.5 °F - 53.1 °F 79% 30.01 in 10.0 mi SE 2.3 mph - N/A   Overcast